• Join FlightAware (Why Join?)
  • Login
  • US Flag GB Flag 
08:16 EST


 

Airport Tracker/Info


-or-


 

Live Flight TrackerFlight Track Log ✈ SWA3681 ✈ 24-Apr-2013 ✈ KDAL - KELP

Flight Track Log - Related Links

Times and Time Zones

All times are in EDT time to prevent confusion due to time zone crossing. See the SWA3681 flight status page for this flight to view local times or setup timezone preferences in your user account.

Time Position Orientation Groundspeed Altitude Reporting Facility
EDT Latitude Longitude Course Direction KTS MPH feet Rate Location/Type
08:37 32.8667 -96.8667 277° West 155 178 1,900  Level Dallas / Fort Worth TRACON
08:39 32.8850 -97.0350 277° West 223 257 8,400 2,897 Climbing Fort Worth Center
08:40 32.8686 -97.1242 258° West 262 302 11,700 2,800 Climbing Fort Worth Center
08:41 32.8542 -97.2131 259° West 273 314 14,000 2,150 Climbing Fort Worth Center
08:42 32.8375 -97.3219 260° West 306 352 16,000 1,900 Climbing Fort Worth Center
08:43 32.8208 -97.4308 260° West 334 384 17,800 2,000 Climbing Fort Worth Center
08:44 32.8019 -97.5319 257° West 357 411 20,000 2,050 Climbing Fort Worth Center
08:45 32.7872 -97.6631 262° West 357 411 21,900 1,600 Climbing Fort Worth Center
08:46 32.7786 -97.7717 265° West 370 426 23,200 1,550 Climbing Fort Worth Center
08:47 32.7675 -97.9125 265° West 383 441 25,000 1,950 Climbing Fort Worth Center
08:48 32.7544 -98.0333 263° West 388 447 27,100 2,050 Climbing Fort Worth Center
08:49 32.7433 -98.1544 264° West 383 441 29,100 1,750 Climbing Fort Worth Center
08:50 32.7322 -98.2728 264° West 368 423 30,600 1,650 Climbing Fort Worth Center
08:51 32.7231 -98.3914 265° West 368 423 32,400 1,600 Climbing Fort Worth Center
08:52 32.7097 -98.4900 261° West 358 412 33,800 1,250 Climbing Fort Worth Center
08:53 32.7003 -98.6033 264° West 348 400 34,900 1,100 Climbing Fort Worth Center
08:54 32.6889 -98.7167 263° West 353 406 36,000 550 Climbing Fort Worth Center
08:55 32.6750 -98.8275 262° West 353 406 36,000  Level Fort Worth Center
08:56 32.6653 -98.9433 264° West 353 406 36,000  Level Fort Worth Center
08:57 32.6533 -99.0592 263° West 353 406 36,000  Level Fort Worth Center
08:58 32.6414 -99.1700 263° West 353 406 36,000  Level Fort Worth Center
08:59 32.6294 -99.2858 263° West 353 406 36,000  Level Fort Worth Center
09:00 32.6172 -99.4014 263° West 353 406 36,000  Level Fort Worth Center
09:01 32.6050 -99.5119 263° West 353 406 36,000  Level Fort Worth Center
09:02 32.5925 -99.6253 263° West 353 406 36,000  Level Fort Worth Center
09:03 32.5781 -99.7383 261° West 353 406 36,000  Level Fort Worth Center
09:04 32.5631 -99.8683 262° West 353 406 36,000  Level Fort Worth Center
09:05 32.5522 -99.9839 264° West 353 406 36,000  Level Fort Worth Center
09:06 32.5414 -100.0994 264° West 353 406 36,000  Level Fort Worth Center
09:07 32.5286 -100.2125 262° West 353 406 36,000  Level Fort Worth Center
09:08 32.5156 -100.3256 262° West 353 406 36,000  Level Fort Worth Center
09:09 32.5044 -100.4408 264° West 353 406 36,000  Level Fort Worth Center
09:10 32.4914 -100.5536 262° West 353 406 36,000  Level Fort Worth Center
09:11 32.4781 -100.6689 262° West 353 406 36,000  Level Fort Worth Center
09:12 32.4644 -100.7842 262° West 359 413 36,000  Level Fort Worth Center
09:13 32.4508 -100.8994 262° West 359 413 36,000  Level Fort Worth Center
09:14 32.4372 -101.0144 262° West 359 413 36,000  Level Fort Worth Center
09:15 32.4214 -101.1269 261° West 359 413 36,000  Level Fort Worth Center
09:16 32.4117 -101.2447 264° West 354 407 36,000  Level Fort Worth Center
09:17 32.4219 -101.2500 337° Northwest 36 41 36,000  Level Fort Worth Center
09:18 32.3861 -101.4578 259° West 160 184 36,000  Level Fort Worth Center
09:19 32.3697 -101.5750 261° West 305 351 36,000  Level Fort Worth Center
09:20 32.3533 -101.6897 260° West 335 386 36,000  Level Fort Worth Center
09:21 32.3408 -101.8072 263° West 358 412 36,000  Level Fort Worth Center
09:22 32.3267 -101.9197 262° West 358 412 36,000  Level Fort Worth Center
09:23 32.3097 -102.0367 260° West 358 412 36,000  Level Fort Worth Center
09:24 32.2950 -102.1514 261° West 358 412 36,000  Level Fort Worth Center
09:25 32.2822 -102.2686 263° West 363 418 36,000  Level Fort Worth Center
09:26 32.2650 -102.3856 260° West 368 423 36,000  Level Fort Worth Center
09:27 32.2522 -102.5006 263° West 368 423 36,000  Level Fort Worth Center
09:28 32.2369 -102.6150 261° West 368 423 36,000  Level Fort Worth Center
09:31 32.1972 -102.9136 261° West 354 407 36,000  Level Albuquerque Center
09:32 32.1817 -103.0289 261° West 354 407 36,000  Level Albuquerque Center
09:33 32.1658 -103.1417 261° West 351 404 36,000  Level Albuquerque Center
09:34 32.1508 -103.2539 261° West 349 402 36,000  Level Albuquerque Center
09:35 32.1353 -103.3664 261° West 347 399 36,000  Level Albuquerque Center
09:36 32.1183 -103.4778 260° West 345 397 36,000  Level Albuquerque Center
09:37 32.1039 -103.5900 261° West 345 397 36,000  Level Albuquerque Center
09:38 32.0881 -103.7003 260° West 343 395 36,000  Level Albuquerque Center
09:39 32.0742 -103.8136 262° West 347 399 36,000 -246 Level Albuquerque Center
09:40 32.0586 -103.9258 261° West 348 400 35,500 -689 Descending Albuquerque Center
09:41 32.0414 -104.0394 260° West 352 405 34,600 -984 Descending Albuquerque Center
09:42 32.0247 -104.1639 261° West 358 412 33,500 -1,033 Descending Albuquerque Center
09:43 32.0078 -104.2789 260° West 359 413 32,500 -976 Descending Albuquerque Center
09:44 31.9900 -104.3958 260° West 363 418 31,500 -927 Descending Albuquerque Center
09:45 31.9775 -104.5122 263° West 361 415 30,600 -1,033 Descending Albuquerque Center
09:46 31.9625 -104.6533 263° West 363 418 29,400 -1,082 Descending Albuquerque Center
09:47 31.9500 -104.7697 263° West 362 417 28,400 -934 Descending Albuquerque Center
09:48 31.9375 -104.8894 263° West 367 422 27,500 -934 Descending Albuquerque Center
09:49 31.9264 -105.0089 264° West 369 425 26,500 -1,180 Descending Albuquerque Center
09:50 31.9133 -105.1272 263° West 368 423 25,100 -1,805 Descending Albuquerque Center
09:51 31.9008 -105.2433 263° West 363 418 22,800 -2,374 Descending Albuquerque Center
09:52 31.8933 -105.3158 263° West 354 407 21,500 -2,164 Descending Albuquerque Center
09:52 31.8889 -105.3575 263° West 356 410 20,600 -2,066 Descending Albuquerque Center
09:53 31.8817 -105.4242 263° West 335 386 19,400 -2,066 Descending Albuquerque Center
09:53 31.8764 -105.4642 261° West 335 386 18,500 -1,800 Descending Albuquerque Center
09:54 31.8736 -105.5289 267° West 325 374 17,600 -1,869 Descending Albuquerque Center
09:54 31.8750 -105.5692 272° West 323 372 16,600 -2,164 Descending Albuquerque Center
09:55 31.8761 -105.6336 271° West 316 364 15,400 -2,557 Descending Albuquerque Center
09:55 31.8733 -105.6911 267° West 313 360 14,000 -2,066 Descending Albuquerque Center
09:56 31.8736 -105.7344 270° West 310 357 13,300 -1,935 Descending Albuquerque Center
09:56 31.8728 -105.7928 269° West 312 359 12,000 -2,200 Descending Albuquerque Center
09:57 31.8728 -105.8447 270° West 314 361 11,100 -2,066 Descending Albuquerque Center
09:57 31.8722 -105.8972 269° West 319 367 9,900 -1,082 Descending Albuquerque Center
09:58 31.8703 -105.9456 267° West 307 353 10,000 -492 Climbing Albuquerque Center
09:58 31.8689 -105.9897 268° West 280 322 9,400 -1,100 Descending Albuquerque Center
09:59 31.8672 -106.0339 267° West 260 299 8,900 -1,180 Descending Albuquerque Center
09:59 31.8664 -106.0758 269° West 266 306 8,200 -885 Descending Albuquerque Center
10:00 31.8656 -106.1169 269° West 256 295 8,000 -484 Descending Albuquerque Center
10:00 31.8642 -106.1544 268° West 244 281 7,700 -689 Descending Albuquerque Center
10:01 31.8658 -106.1894 273° West 217 250 7,300 -1,082 Descending Albuquerque Center
10:01 31.8667 -106.2256 272° West 222 255 6,600 -1,111 Descending Albuquerque Center
10:02 31.8675 -106.2567 272° West 213 245 6,300 -984 Descending Albuquerque Center
10:03 31.8681 -106.2931 271° West 209 241 5,600 -984 Descending Albuquerque Center
10:03 31.8611 -106.3156 250° West 174 200 5,300 -885 Descending Albuquerque Center
10:04 31.8464 -106.3364 230° Southwest 155 178 4,700 -900 Descending Albuquerque Center
10:04 31.8358 -106.3519 231° Southwest 140 161 4,400 -677 Descending Albuquerque Center
10:05 31.8172 -106.3764 228° Southwest 146 168 4,000 -522 Descending Albuquerque Center
10:07 31.8072 -106.3764 North  Level Estimated
10:14 31.8072 -106.3764 North  Level Estimated
10:15 31.8072 -106.3764 North  Level Estimated
10:16 31.8072 -106.3764 North  Level Estimated